owner,sensor,date,latitude,longitude,vertical_datum,sea_water_practical_salinity,qcFlag 
COMPS,ioos:station:USF.COMPS:EGK:1,2009-03-01T00:00:00Z,27.6010,-82.7510,1.0,37.612,1111122 
COMPS,ioos:station:USF.COMPS:EGK:1,2009-03-01T00:06:00Z,27.6010,-82.7510,1.0,37.614,1111122 
COMPS,ioos:station:USF.COMPS:EGK:1,2009-03-01T00:12:00Z,27.6010,-82.7510,1.0,37.519,1111122 
COMPS,ioos:station:USF.COMPS:EGK:1,2009-03-01T00:18:00Z,27.6010,-82.7510,1.0,37.695,1111122 
COMPS,ioos:station:USF.COMPS:EGK:1,2009-03-01T00:24:00Z,27.6010,-82.7510,1.0,37.459,1111122 
COMPS,ioos:station:USF.COMPS:EGK:1,2009-03-01T00:30:00Z,27.6010,-82.7510,1.0,36.68,1111122 
COMPS,ioos:station:USF.COMPS:EGK:1,2009-03-01T00:36:00Z,27.6010,-82.7510,1.0,37.42,1111122 
COMPS,ioos:station:USF.COMPS:EGK:1,2009-03-01T00:42:00Z,27.6010,-82.7510,1.0,37.717,1111122 
COMPS,ioos:station:USF.COMPS:EGK:1,2009-03-01T00:48:00Z,27.6010,-82.7510,1.0,36.986,1111122 
COMPS,ioos:station:USF.COMPS:EGK:1,2009-03-01T00:54:00Z,27.6010,-82.7510,1.0,36.684,1111122 
COMPS,ioos:station:USF.COMPS:EGK:1,2009-03-01T01:00:00Z,27.6010,-82.7510,1.0,37.302,1111122 
COMPS,ioos:station:USF.COMPS:EGK:1,2009-03-01T01:06:00Z,27.6010,-82.7510,1.0,37.73,1111122 
COMPS,ioos:station:USF.COMPS:EGK:1,2009-03-01T01:12:00Z,27.6010,-82.7510,1.0,37.739,1111122 
COMPS,ioos:station:USF.COMPS:EGK:1,2009-03-01T01:18:00Z,27.6010,-82.7510,1.0,37.749,1111122 
COMPS,ioos:station:USF.COMPS:EGK:1,2009-03-01T01:24:00Z,27.6010,-82.7510,1.0,37.732,1111122 
COMPS,ioos:station:USF.COMPS:EGK:1,2009-03-01T01:30:00Z,27.6010,-82.7510,1.0,37.732,1111122 
COMPS,ioos:station:USF.COMPS:EGK:1,2009-03-01T01:36:00Z,27.6010,-82.7510,1.0,37.715,1111122 
COMPS,ioos:station:USF.COMPS:EGK:1,2009-03-01T01:42:00Z,27.6010,-82.7510,1.0,37.733,1111122 
COMPS,ioos:station:USF.COMPS:EGK:1,2009-03-01T01:48:00Z,27.6010,-82.7510,1.0,37.454,1111122 
COMPS,ioos:station:USF.COMPS:EGK:1,2009-03-01T01:54:00Z,27.6010,-82.7510,1.0,37.132,1111122 
COMPS,ioos:station:USF.COMPS:EGK:1,2009-03-01T02:00:00Z,27.6010,-82.7510,1.0,37.883,1111122 
COMPS,ioos:station:USF.COMPS:EGK:1,2009-03-01T02:06:00Z,27.6010,-82.7510,1.0,37.814,1111122 
COMPS,ioos:station:USF.COMPS:EGK:1,2009-03-01T02:12:00Z,27.6010,-82.7510,1.0,37.903,1111122 
COMPS,ioos:station:USF.COMPS:EGK:1,2009-03-01T02:18:00Z,27.6010,-82.7510,1.0,37.894,1111122 
COMPS,ioos:station:USF.COMPS:EGK:1,2009-03-01T02:24:00Z,27.6010,-82.7510,1.0,37.885,1111122 
COMPS,ioos:station:USF.COMPS:EGK:1,2009-03-01T02:30:00Z,27.6010,-82.7510,1.0,37.886,1111122 
COMPS,ioos:station:USF.COMPS:EGK:1,2009-03-01T02:36:00Z,27.6010,-82.7510,1.0,37.869,1111122 
COMPS,ioos:station:USF.COMPS:EGK:1,2009-03-01T02:42:00Z,27.6010,-82.7510,1.0,37.878,1111122 
COMPS,ioos:station:USF.COMPS:EGK:1,2009-03-01T02:48:00Z,27.6010,-82.7510,1.0,37.869,1111122 
COMPS,ioos:station:USF.COMPS:EGK:1,2009-03-01T02:54:00Z,27.6010,-82.7510,1.0,37.87,1111122 
COMPS,ioos:station:USF.COMPS:EGK:1,2009-03-01T03:00:00Z,27.6010,-82.7510,1.0,37.861,1111122 
COMPS,ioos:station:USF.COMPS:EGK:1,2009-03-01T03:06:00Z,27.6010,-82.7510,1.0,37.862,1111122 
COMPS,ioos:station:USF.COMPS:EGK:1,2009-03-01T03:12:00Z,27.6010,-82.7510,1.0,37.835,1111122 
COMPS,ioos:station:USF.COMPS:EGK:1,2009-03-01T03:18:00Z,27.6010,-82.7510,1.0,37.827,1111122 
COMPS,ioos:station:USF.COMPS:EGK:1,2009-03-01T03:24:00Z,27.6010,-82.7510,1.0,37.861,1111122 
COMPS,ioos:station:USF.COMPS:EGK:1,2009-03-01T03:30:00Z,27.6010,-82.7510,1.0,37.861,1111122 
COMPS,ioos:station:USF.COMPS:EGK:1,2009-03-01T03:36:00Z,27.6010,-82.7510,1.0,37.843,1111122 
COMPS,ioos:station:USF.COMPS:EGK:1,2009-03-01T03:42:00Z,27.6010,-82.7510,1.0,37.852,1111122 
COMPS,ioos:station:USF.COMPS:EGK:1,2009-03-01T03:48:00Z,27.6010,-82.7510,1.0,37.867,1111122 
COMPS,ioos:station:USF.COMPS:EGK:1,2009-03-01T03:54:00Z,27.6010,-82.7510,1.0,37.795,1111122 
COMPS,ioos:station:USF.COMPS:EGK:1,2009-03-01T04:00:00Z,27.6010,-82.7510,1.0,37.786,1111122 
COMPS,ioos:station:USF.COMPS:EGK:1,2009-03-01T04:06:00Z,27.6010,-82.7510,1.0,37.794,1111122 
COMPS,ioos:station:USF.COMPS:EGK:1,2009-03-01T04:12:00Z,27.6010,-82.7510,1.0,37.801,1111122 
COMPS,ioos:station:USF.COMPS:EGK:1,2009-03-01T04:18:00Z,27.6010,-82.7510,1.0,37.86,1111122 
COMPS,ioos:station:USF.COMPS:EGK:1,2009-03-01T04:24:00Z,27.6010,-82.7510,1.0,37.789,1111122 
COMPS,ioos:station:USF.COMPS:EGK:1,2009-03-01T04:30:00Z,27.6010,-82.7510,1.0,37.76,1111122 
COMPS,ioos:station:USF.COMPS:EGK:1,2009-03-01T04:36:00Z,27.6010,-82.7510,1.0,37.558,1111122 
COMPS,ioos:station:USF.COMPS:EGK:1,2009-03-01T04:42:00Z,27.6010,-82.7510,1.0,37.724,1111122 
COMPS,ioos:station:USF.COMPS:EGK:1,2009-03-01T04:48:00Z,27.6010,-82.7510,1.0,37.715,1111122 
COMPS,ioos:station:USF.COMPS:EGK:1,2009-03-01T04:54:00Z,27.6010,-82.7510,1.0,37.141,1111122 
COMPS,ioos:station:USF.COMPS:EGK:1,2009-03-01T05:00:00Z,27.6010,-82.7510,1.0,37.698,1111122 
COMPS,ioos:station:USF.COMPS:EGK:1,2009-03-01T05:06:00Z,27.6010,-82.7510,1.0,37.697,1111122 
COMPS,ioos:station:USF.COMPS:EGK:1,2009-03-01T05:12:00Z,27.6010,-82.7510,1.0,37.723,1111122 
COMPS,ioos:station:USF.COMPS:EGK:1,2009-03-01T05:18:00Z,27.6010,-82.7510,1.0,37.698,1111122 
COMPS,ioos:station:USF.COMPS:EGK:1,2009-03-01T05:24:00Z,27.6010,-82.7510,1.0,37.715,1111122 
COMPS,ioos:station:USF.COMPS:EGK:1,2009-03-01T05:30:00Z,27.6010,-82.7510,1.0,37.69,1111122 
COMPS,ioos:station:USF.COMPS:EGK:1,2009-03-01T05:36:00Z,27.6010,-82.7510,1.0,37.673,1111122 
COMPS,ioos:station:USF.COMPS:EGK:1,2009-03-01T05:42:00Z,27.6010,-82.7510,1.0,37.691,1111122 
COMPS,ioos:station:USF.COMPS:EGK:1,2009-03-01T05:48:00Z,27.6010,-82.7510,1.0,37.7,1111122 
COMPS,ioos:station:USF.COMPS:EGK:1,2009-03-01T05:54:00Z,27.6010,-82.7510,1.0,37.43,1111122 
COMPS,ioos:station:USF.COMPS:EGK:1,2009-03-01T06:00:00Z,27.6010,-82.7510,1.0,37.361,1111122 
COMPS,ioos:station:USF.COMPS:EGK:1,2009-03-01T06:06:00Z,27.6010,-82.7510,1.0,37.674,1111122 
COMPS,ioos:station:USF.COMPS:EGK:1,2009-03-01T06:12:00Z,27.6010,-82.7510,1.0,37.639,1111122 
COMPS,ioos:station:USF.COMPS:EGK:1,2009-03-01T06:18:00Z,27.6010,-82.7510,1.0,37.64,1111122 
COMPS,ioos:station:USF.COMPS:EGK:1,2009-03-01T06:24:00Z,27.6010,-82.7510,1.0,37.658,1111122 
COMPS,ioos:station:USF.COMPS:EGK:1,2009-03-01T06:30:00Z,27.6010,-82.7510,1.0,37.667,1111122 
COMPS,ioos:station:USF.COMPS:EGK:1,2009-03-01T06:36:00Z,27.6010,-82.7510,1.0,37.729,1111122 
COMPS,ioos:station:USF.COMPS:EGK:1,2009-03-01T06:42:00Z,27.6010,-82.7510,1.0,37.748,1111122 
COMPS,ioos:station:USF.COMPS:EGK:1,2009-03-01T06:48:00Z,27.6010,-82.7510,1.0,37.643,1111122 
COMPS,ioos:station:USF.COMPS:EGK:1,2009-03-01T06:54:00Z,27.6010,-82.7510,1.0,37.722,1111122 
COMPS,ioos:station:USF.COMPS:EGK:1,2009-03-01T07:00:00Z,27.6010,-82.7510,1.0,37.713,1111122 
COMPS,ioos:station:USF.COMPS:EGK:1,2009-03-01T07:06:00Z,27.6010,-82.7510,1.0,37.704,1111122 
COMPS,ioos:station:USF.COMPS:EGK:1,2009-03-01T07:12:00Z,27.6010,-82.7510,1.0,37.694,1111122 
COMPS,ioos:station:USF.COMPS:EGK:1,2009-03-01T07:18:00Z,27.6010,-82.7510,1.0,37.72,1111122 
COMPS,ioos:station:USF.COMPS:EGK:1,2009-03-01T07:24:00Z,27.6010,-82.7510,1.0,37.712,1111122 
COMPS,ioos:station:USF.COMPS:EGK:1,2009-03-01T07:30:00Z,27.6010,-82.7510,1.0,37.598,1111122 
COMPS,ioos:station:USF.COMPS:EGK:1,2009-03-01T07:36:00Z,27.6010,-82.7510,1.0,37.667,1111122 
COMPS,ioos:station:USF.COMPS:EGK:1,2009-03-01T07:42:00Z,27.6010,-82.7510,1.0,37.641,1111122 
COMPS,ioos:station:USF.COMPS:EGK:1,2009-03-01T07:48:00Z,27.6010,-82.7510,1.0,37.597,1111122 
COMPS,ioos:station:USF.COMPS:EGK:1,2009-03-01T07:54:00Z,27.6010,-82.7510,1.0,37.588,1111122 
COMPS,ioos:station:USF.COMPS:EGK:1,2009-03-01T08:00:00Z,27.6010,-82.7510,1.0,37.606,1111122 
COMPS,ioos:station:USF.COMPS:EGK:1,2009-03-01T08:06:00Z,27.6010,-82.7510,1.0,37.643,1111122 
COMPS,ioos:station:USF.COMPS:EGK:1,2009-03-01T08:12:00Z,27.6010,-82.7510,1.0,37.619,1111122 
COMPS,ioos:station:USF.COMPS:EGK:1,2009-03-01T08:18:00Z,27.6010,-82.7510,1.0,36.818,1111122 
COMPS,ioos:station:USF.COMPS:EGK:1,2009-03-01T08:24:00Z,27.6010,-82.7510,1.0,37.744,1111122 
COMPS,ioos:station:USF.COMPS:EGK:1,2009-03-01T08:30:00Z,27.6010,-82.7510,1.0,37.719,1111122 
COMPS,ioos:station:USF.COMPS:EGK:1,2009-03-01T08:36:00Z,27.6010,-82.7510,1.0,37.553,1111122 
COMPS,ioos:station:USF.COMPS:EGK:1,2009-03-01T08:42:00Z,27.6010,-82.7510,1.0,37.622,1111122 
COMPS,ioos:station:USF.COMPS:EGK:1,2009-03-01T08:48:00Z,27.6010,-82.7510,1.0,37.762,1111122 
COMPS,ioos:station:USF.COMPS:EGK:1,2009-03-01T08:54:00Z,27.6010,-82.7510,1.0,37.753,1111122 
COMPS,ioos:station:USF.COMPS:EGK:1,2009-03-01T09:00:00Z,27.6010,-82.7510,1.0,37.699,1111122 
COMPS,ioos:station:USF.COMPS:EGK:1,2009-03-01T09:06:00Z,27.6010,-82.7510,1.0,37.725,1111122 
COMPS,ioos:station:USF.COMPS:EGK:1,2009-03-01T09:12:00Z,27.6010,-82.7510,1.0,37.742,1111122 
COMPS,ioos:station:USF.COMPS:EGK:1,2009-03-01T09:18:00Z,27.6010,-82.7510,1.0,37.601,1111122 
COMPS,ioos:station:USF.COMPS:EGK:1,2009-03-01T09:24:00Z,27.6010,-82.7510,1.0,37.706,1111122 
COMPS,ioos:station:USF.COMPS:EGK:1,2009-03-01T09:30:00Z,27.6010,-82.7510,1.0,37.732,1111122 
COMPS,ioos:station:USF.COMPS:EGK:1,2009-03-01T09:36:00Z,27.6010,-82.7510,1.0,37.269,1111122 
COMPS,ioos:station:USF.COMPS:EGK:1,2009-03-01T09:42:00Z,27.6010,-82.7510,1.0,37.767,1111122 
COMPS,ioos:station:USF.COMPS:EGK:1,2009-03-01T09:48:00Z,27.6010,-82.7510,1.0,37.671,1111122 
COMPS,ioos:station:USF.COMPS:EGK:1,2009-03-01T09:54:00Z,27.6010,-82.7510,1.0,37.017,1111122 
COMPS,ioos:station:USF.COMPS:EGK:1,2009-03-01T10:00:00Z,27.6010,-82.7510,1.0,36.877,1111122 
COMPS,ioos:station:USF.COMPS:EGK:1,2009-03-01T10:06:00Z,27.6010,-82.7510,1.0,37.252,1111122 
COMPS,ioos:station:USF.COMPS:EGK:1,2009-03-01T10:12:00Z,27.6010,-82.7510,1.0,37.392,1111122 
COMPS,ioos:station:USF.COMPS:EGK:1,2009-03-01T10:18:00Z,27.6010,-82.7510,1.0,37.767,1111122 
COMPS,ioos:station:USF.COMPS:EGK:1,2009-03-01T10:24:00Z,27.6010,-82.7510,1.0,37.784,1111122 
COMPS,ioos:station:USF.COMPS:EGK:1,2009-03-01T10:30:00Z,27.6010,-82.7510,1.0,37.767,1111122 
COMPS,ioos:station:USF.COMPS:EGK:1,2009-03-01T10:36:00Z,27.6010,-82.7510,1.0,37.758,1111122 
COMPS,ioos:station:USF.COMPS:EGK:1,2009-03-01T10:42:00Z,27.6010,-82.7510,1.0,37.697,1111122 
COMPS,ioos:station:USF.COMPS:EGK:1,2009-03-01T10:48:00Z,27.6010,-82.7510,1.0,37.453,1111122 
COMPS,ioos:station:USF.COMPS:EGK:1,2009-03-01T10:54:00Z,27.6010,-82.7510,1.0,37.706,1111122 
COMPS,ioos:station:USF.COMPS:EGK:1,2009-03-01T11:00:00Z,27.6010,-82.7510,1.0,37.698,1111122 
COMPS,ioos:station:USF.COMPS:EGK:1,2009-03-01T11:06:00Z,27.6010,-82.7510,1.0,37.682,1111122 
COMPS,ioos:station:USF.COMPS:EGK:1,2009-03-01T11:12:00Z,27.6010,-82.7510,1.0,37.43,1111122 
COMPS,ioos:station:USF.COMPS:EGK:1,2009-03-01T11:18:00Z,27.6010,-82.7510,1.0,37.684,1111122 
COMPS,ioos:station:USF.COMPS:EGK:1,2009-03-01T11:24:00Z,27.6010,-82.7510,1.0,37.133,1111122 
COMPS,ioos:station:USF.COMPS:EGK:1,2009-03-01T11:30:00Z,27.6010,-82.7510,1.0,36.96,1111122 
COMPS,ioos:station:USF.COMPS:EGK:1,2009-03-01T11:36:00Z,27.6010,-82.7510,1.0,36.699,1111122 
COMPS,ioos:station:USF.COMPS:EGK:1,2009-03-01T11:42:00Z,27.6010,-82.7510,1.0,36.83,1111122 
COMPS,ioos:station:USF.COMPS:EGK:1,2009-03-01T11:48:00Z,27.6010,-82.7510,1.0,36.854,1111122 
COMPS,ioos:station:USF.COMPS:EGK:1,2009-03-01T11:54:00Z,27.6010,-82.7510,1.0,36.827,1111122 
COMPS,ioos:station:USF.COMPS:EGK:1,2009-03-01T12:00:00Z,27.6010,-82.7510,1.0,36.853,1111122 
COMPS,ioos:station:USF.COMPS:EGK:1,2009-03-01T12:06:00Z,27.6010,-82.7510,1.0,36.801,1111122 
COMPS,ioos:station:USF.COMPS:EGK:1,2009-03-01T12:12:00Z,27.6010,-82.7510,1.0,37.315,1111122 
COMPS,ioos:station:USF.COMPS:EGK:1,2009-03-01T12:18:00Z,27.6010,-82.7510,1.0,36.27,1111122 
COMPS,ioos:station:USF.COMPS:EGK:1,2009-03-01T12:24:00Z,27.6010,-82.7510,1.0,35.749,1111122 
COMPS,ioos:station:USF.COMPS:EGK:1,2009-03-01T12:30:00Z,27.6010,-82.7510,1.0,35.732,1111122 
COMPS,ioos:station:USF.COMPS:EGK:1,2009-03-01T12:36:00Z,27.6010,-82.7510,1.0,35.74,1111122 
COMPS,ioos:station:USF.COMPS:EGK:1,2009-03-01T12:42:00Z,27.6010,-82.7510,1.0,35.723,1111122 
COMPS,ioos:station:USF.COMPS:EGK:1,2009-03-01T12:48:00Z,27.6010,-82.7510,1.0,35.689,1111122 
COMPS,ioos:station:USF.COMPS:EGK:1,2009-03-01T12:54:00Z,27.6010,-82.7510,1.0,35.602,1111122 
COMPS,ioos:station:USF.COMPS:EGK:1,2009-03-01T13:00:00Z,27.6010,-82.7510,1.0,35.689,1111122 
COMPS,ioos:station:USF.COMPS:EGK:1,2009-03-01T13:06:00Z,27.6010,-82.7510,1.0,35.671,1111122 
COMPS,ioos:station:USF.COMPS:EGK:1,2009-03-01T13:12:00Z,27.6010,-82.7510,1.0,35.732,1111122 
COMPS,ioos:station:USF.COMPS:EGK:1,2009-03-01T13:18:00Z,27.6010,-82.7510,1.0,35.724,1111122 
COMPS,ioos:station:USF.COMPS:EGK:1,2009-03-01T13:24:00Z,27.6010,-82.7510,1.0,35.82,1111122 
COMPS,ioos:station:USF.COMPS:EGK:1,2009-03-01T13:30:00Z,27.6010,-82.7510,1.0,35.724,1111122 
COMPS,ioos:station:USF.COMPS:EGK:1,2009-03-01T13:36:00Z,27.6010,-82.7510,1.0,35.69,1111122 
COMPS,ioos:station:USF.COMPS:EGK:1,2009-03-01T13:42:00Z,27.6010,-82.7510,1.0,35.768,1111122 
COMPS,ioos:station:USF.COMPS:EGK:1,2009-03-01T13:48:00Z,27.6010,-82.7510,1.0,35.742,1111122 
COMPS,ioos:station:USF.COMPS:EGK:1,2009-03-01T13:54:00Z,27.6010,-82.7510,1.0,35.742,1111122 
COMPS,ioos:station:USF.COMPS:EGK:1,2009-03-01T14:00:00Z,27.6010,-82.7510,1.0,35.75,1111122 
COMPS,ioos:station:USF.COMPS:EGK:1,2009-03-01T14:06:00Z,27.6010,-82.7510,1.0,35.75,1111122 
COMPS,ioos:station:USF.COMPS:EGK:1,2009-03-01T14:12:00Z,27.6010,-82.7510,1.0,35.811,1111122 
COMPS,ioos:station:USF.COMPS:EGK:1,2009-03-01T14:18:00Z,27.6010,-82.7510,1.0,35.829,1111122 
COMPS,ioos:station:USF.COMPS:EGK:1,2009-03-01T14:24:00Z,27.6010,-82.7510,1.0,35.794,1111122 
COMPS,ioos:station:USF.COMPS:EGK:1,2009-03-01T14:30:00Z,27.6010,-82.7510,1.0,35.734,1111122 
COMPS,ioos:station:USF.COMPS:EGK:1,2009-03-01T14:36:00Z,27.6010,-82.7510,1.0,35.647,1111122 
COMPS,ioos:station:USF.COMPS:EGK:1,2009-03-01T14:42:00Z,27.6010,-82.7510,1.0,35.586,1111122 
COMPS,ioos:station:USF.COMPS:EGK:1,2009-03-01T14:48:00Z,27.6010,-82.7510,1.0,35.578,1111122 
COMPS,ioos:station:USF.COMPS:EGK:1,2009-03-01T14:54:00Z,27.6010,-82.7510,1.0,35.561,1111122 
COMPS,ioos:station:USF.COMPS:EGK:1,2009-03-01T15:00:00Z,27.6010,-82.7510,1.0,35.544,1111122 
COMPS,ioos:station:USF.COMPS:EGK:1,2009-03-01T15:06:00Z,27.6010,-82.7510,1.0,35.439,1111122 
COMPS,ioos:station:USF.COMPS:EGK:1,2009-03-01T15:12:00Z,27.6010,-82.7510,1.0,35.466,1111122 
COMPS,ioos:station:USF.COMPS:EGK:1,2009-03-01T15:18:00Z,27.6010,-82.7510,1.0,35.474,1111122 
COMPS,ioos:station:USF.COMPS:EGK:1,2009-03-01T15:24:00Z,27.6010,-82.7510,1.0,35.483,1111122 
COMPS,ioos:station:USF.COMPS:EGK:1,2009-03-01T15:30:00Z,27.6010,-82.7510,1.0,35.474,1111122 
COMPS,ioos:station:USF.COMPS:EGK:1,2009-03-01T15:36:00Z,27.6010,-82.7510,1.0,35.492,1111122 
COMPS,ioos:station:USF.COMPS:EGK:1,2009-03-01T15:42:00Z,27.6010,-82.7510,1.0,35.518,1111122 
COMPS,ioos:station:USF.COMPS:EGK:1,2009-03-01T15:48:00Z,27.6010,-82.7510,1.0,35.352,1111122 
COMPS,ioos:station:USF.COMPS:EGK:1,2009-03-01T15:54:00Z,27.6010,-82.7510,1.0,35.439,1111122 
COMPS,ioos:station:USF.COMPS:EGK:1,2009-03-01T16:00:00Z,27.6010,-82.7510,1.0,35.474,1111122 
COMPS,ioos:station:USF.COMPS:EGK:1,2009-03-01T16:06:00Z,27.6010,-82.7510,1.0,35.552,1111122 
COMPS,ioos:station:USF.COMPS:EGK:1,2009-03-01T16:12:00Z,27.6010,-82.7510,1.0,35.43,1111122 
COMPS,ioos:station:USF.COMPS:EGK:1,2009-03-01T16:18:00Z,27.6010,-82.7510,1.0,35.395,1111122 
COMPS,ioos:station:USF.COMPS:EGK:1,2009-03-01T16:24:00Z,27.6010,-82.7510,1.0,35.482,1111122 
COMPS,ioos:station:USF.COMPS:EGK:1,2009-03-01T16:30:00Z,27.6010,-82.7510,1.0,35.386,1111122 
COMPS,ioos:station:USF.COMPS:EGK:1,2009-03-01T16:36:00Z,27.6010,-82.7510,1.0,35.404,1111122 
COMPS,ioos:station:USF.COMPS:EGK:1,2009-03-01T16:42:00Z,27.6010,-82.7510,1.0,35.343,1111122 
COMPS,ioos:station:USF.COMPS:EGK:1,2009-03-01T16:48:00Z,27.6010,-82.7510,1.0,35.308,1111122 
COMPS,ioos:station:USF.COMPS:EGK:1,2009-03-01T16:54:00Z,27.6010,-82.7510,1.0,35.447,1111122 
COMPS,ioos:station:USF.COMPS:EGK:1,2009-03-01T17:00:00Z,27.6010,-82.7510,1.0,35.378,1111122 
COMPS,ioos:station:USF.COMPS:EGK:1,2009-03-01T17:06:00Z,27.6010,-82.7510,1.0,35.386,1111122 
COMPS,ioos:station:USF.COMPS:EGK:1,2009-03-01T17:12:00Z,27.6010,-82.7510,1.0,35.43,1111122 
COMPS,ioos:station:USF.COMPS:EGK:1,2009-03-01T17:18:00Z,27.6010,-82.7510,1.0,35.447,1111122 
COMPS,ioos:station:USF.COMPS:EGK:1,2009-03-01T17:24:00Z,27.6010,-82.7510,1.0,35.404,1111122 
COMPS,ioos:station:USF.COMPS:EGK:1,2009-03-01T17:30:00Z,27.6010,-82.7510,1.0,35.36,1111122 
COMPS,ioos:station:USF.COMPS:EGK:1,2009-03-01T17:36:00Z,27.6010,-82.7510,1.0,35.36,1111122 
COMPS,ioos:station:USF.COMPS:EGK:1,2009-03-01T17:42:00Z,27.6010,-82.7510,1.0,35.412,1111122 
COMPS,ioos:station:USF.COMPS:EGK:1,2009-03-01T17:48:00Z,27.6010,-82.7510,1.0,35.403,1111122 
COMPS,ioos:station:USF.COMPS:EGK:1,2009-03-01T17:54:00Z,27.6010,-82.7510,1.0,35.23,1111122 
COMPS,ioos:station:USF.COMPS:EGK:1,2009-03-01T18:00:00Z,27.6010,-82.7510,1.0,35.238,1111122 
COMPS,ioos:station:USF.COMPS:EGK:1,2009-03-01T18:06:00Z,27.6010,-82.7510,1.0,35.169,1111122 
COMPS,ioos:station:USF.COMPS:EGK:1,2009-03-01T18:12:00Z,27.6010,-82.7510,1.0,35.1,1111122 
COMPS,ioos:station:USF.COMPS:EGK:1,2009-03-01T18:18:00Z,27.6010,-82.7510,1.0,35.178,1111122 
COMPS,ioos:station:USF.COMPS:EGK:1,2009-03-01T18:24:00Z,27.6010,-82.7510,1.0,35.074,1111122 
COMPS,ioos:station:USF.COMPS:EGK:1,2009-03-01T18:30:00Z,27.6010,-82.7510,1.0,35.04,1111122 
COMPS,ioos:station:USF.COMPS:EGK:1,2009-03-01T18:36:00Z,27.6010,-82.7510,1.0,34.962,1111122 
COMPS,ioos:station:USF.COMPS:EGK:1,2009-03-01T18:42:00Z,27.6010,-82.7510,1.0,34.858,1111122 
COMPS,ioos:station:USF.COMPS:EGK:1,2009-03-01T18:48:00Z,27.6010,-82.7510,1.0,34.686,1111122 
COMPS,ioos:station:USF.COMPS:EGK:1,2009-03-01T18:54:00Z,27.6010,-82.7510,1.0,34.72,1111122 
COMPS,ioos:station:USF.COMPS:EGK:1,2009-03-01T19:00:00Z,27.6010,-82.7510,1.0,34.643,1111122 
COMPS,ioos:station:USF.COMPS:EGK:1,2009-03-01T19:06:00Z,27.6010,-82.7510,1.0,34.625,1111122 
COMPS,ioos:station:USF.COMPS:EGK:1,2009-03-01T19:12:00Z,27.6010,-82.7510,1.0,34.548,1111122 
COMPS,ioos:station:USF.COMPS:EGK:1,2009-03-01T19:18:00Z,27.6010,-82.7510,1.0,34.763,1111122 
COMPS,ioos:station:USF.COMPS:EGK:1,2009-03-01T19:24:00Z,27.6010,-82.7510,1.0,34.988,1111122 
COMPS,ioos:station:USF.COMPS:EGK:1,2009-03-01T19:30:00Z,27.6010,-82.7510,1.0,35.014,1111122 
COMPS,ioos:station:USF.COMPS:EGK:1,2009-03-01T19:36:00Z,27.6010,-82.7510,1.0,34.936,1111122 
COMPS,ioos:station:USF.COMPS:EGK:1,2009-03-01T19:42:00Z,27.6010,-82.7510,1.0,34.832,1111122 
COMPS,ioos:station:USF.COMPS:EGK:1,2009-03-01T19:48:00Z,27.6010,-82.7510,1.0,34.936,1111122 
COMPS,ioos:station:USF.COMPS:EGK:1,2009-03-01T19:54:00Z,27.6010,-82.7510,1.0,35.014,1111122 
COMPS,ioos:station:USF.COMPS:EGK:1,2009-03-01T20:00:00Z,27.6010,-82.7510,1.0,34.996,1111122 
COMPS,ioos:station:USF.COMPS:EGK:1,2009-03-01T20:06:00Z,27.6010,-82.7510,1.0,34.936,1111122 
COMPS,ioos:station:USF.COMPS:EGK:1,2009-03-01T20:12:00Z,27.6010,-82.7510,1.0,34.97,1111122 
COMPS,ioos:station:USF.COMPS:EGK:1,2009-03-01T20:18:00Z,27.6010,-82.7510,1.0,35.014,1111122 
COMPS,ioos:station:USF.COMPS:EGK:1,2009-03-01T20:24:00Z,27.6010,-82.7510,1.0,35.048,1111122 
COMPS,ioos:station:USF.COMPS:EGK:1,2009-03-01T20:30:00Z,27.6010,-82.7510,1.0,35.04,1111122 
COMPS,ioos:station:USF.COMPS:EGK:1,2009-03-01T20:36:00Z,27.6010,-82.7510,1.0,34.953,1111122 
COMPS,ioos:station:USF.COMPS:EGK:1,2009-03-01T20:42:00Z,27.6010,-82.7510,1.0,34.988,1111122 
COMPS,ioos:station:USF.COMPS:EGK:1,2009-03-01T20:48:00Z,27.6010,-82.7510,1.0,34.91,1111122 
COMPS,ioos:station:USF.COMPS:EGK:1,2009-03-01T20:54:00Z,27.6010,-82.7510,1.0,34.927,1111122 
COMPS,ioos:station:USF.COMPS:EGK:1,2009-03-01T21:00:00Z,27.6010,-82.7510,1.0,34.918,1111122 
COMPS,ioos:station:USF.COMPS:EGK:1,2009-03-01T21:06:00Z,27.6010,-82.7510,1.0,34.979,1111122 
COMPS,ioos:station:USF.COMPS:EGK:1,2009-03-01T21:12:00Z,27.6010,-82.7510,1.0,34.684,1111122 
COMPS,ioos:station:USF.COMPS:EGK:1,2009-03-01T21:18:00Z,27.6010,-82.7510,1.0,34.701,1111122 
COMPS,ioos:station:USF.COMPS:EGK:1,2009-03-01T21:24:00Z,27.6010,-82.7510,1.0,34.519,1111122 
COMPS,ioos:station:USF.COMPS:EGK:1,2009-03-01T21:30:00Z,27.6010,-82.7510,1.0,34.918,1111122 
COMPS,ioos:station:USF.COMPS:EGK:1,2009-03-01T21:36:00Z,27.6010,-82.7510,1.0,35.031,1111122 
COMPS,ioos:station:USF.COMPS:EGK:1,2009-03-01T21:42:00Z,27.6010,-82.7510,1.0,35.014,1111122 
COMPS,ioos:station:USF.COMPS:EGK:1,2009-03-01T21:48:00Z,27.6010,-82.7510,1.0,34.883,1111122 
COMPS,ioos:station:USF.COMPS:EGK:1,2009-03-01T21:54:00Z,27.6010,-82.7510,1.0,34.909,1111122 
COMPS,ioos:station:USF.COMPS:EGK:1,2009-03-01T22:00:00Z,27.6010,-82.7510,1.0,34.874,1111122 
COMPS,ioos:station:USF.COMPS:EGK:1,2009-03-01T22:06:00Z,27.6010,-82.7510,1.0,34.996,1111122 
COMPS,ioos:station:USF.COMPS:EGK:1,2009-03-01T22:12:00Z,27.6010,-82.7510,1.0,34.901,1111122 
COMPS,ioos:station:USF.COMPS:EGK:1,2009-03-01T22:18:00Z,27.6010,-82.7510,1.0,34.935,1111122 
COMPS,ioos:station:USF.COMPS:EGK:1,2009-03-01T22:24:00Z,27.6010,-82.7510,1.0,35.048,1111122 
COMPS,ioos:station:USF.COMPS:EGK:1,2009-03-01T22:30:00Z,27.6010,-82.7510,1.0,35.187,1111122 
COMPS,ioos:station:USF.COMPS:EGK:1,2009-03-01T22:36:00Z,27.6010,-82.7510,1.0,35.292,1111122 
COMPS,ioos:station:USF.COMPS:EGK:1,2009-03-01T22:42:00Z,27.6010,-82.7510,1.0,35.275,1111122 
COMPS,ioos:station:USF.COMPS:EGK:1,2009-03-01T22:48:00Z,27.6010,-82.7510,1.0,35.327,1111122 
COMPS,ioos:station:USF.COMPS:EGK:1,2009-03-01T22:54:00Z,27.6010,-82.7510,1.0,35.379,1111122 
COMPS,ioos:station:USF.COMPS:EGK:1,2009-03-01T23:00:00Z,27.6010,-82.7510,1.0,35.432,1111122 
COMPS,ioos:station:USF.COMPS:EGK:1,2009-03-01T23:06:00Z,27.6010,-82.7510,1.0,35.31,1111122 
COMPS,ioos:station:USF.COMPS:EGK:1,2009-03-01T23:12:00Z,27.6010,-82.7510,1.0,35.397,1111122 
COMPS,ioos:station:USF.COMPS:EGK:1,2009-03-01T23:18:00Z,27.6010,-82.7510,1.0,36.506,1111122 
COMPS,ioos:station:USF.COMPS:EGK:1,2009-03-01T23:24:00Z,27.6010,-82.7510,1.0,36.524,1111122 
COMPS,ioos:station:USF.COMPS:EGK:1,2009-03-01T23:30:00Z,27.6010,-82.7510,1.0,36.611,1111122 
COMPS,ioos:station:USF.COMPS:EGK:1,2009-03-01T23:36:00Z,27.6010,-82.7510,1.0,36.559,1111122 
COMPS,ioos:station:USF.COMPS:EGK:1,2009-03-01T23:42:00Z,27.6010,-82.7510,1.0,36.885,1111122 
COMPS,ioos:station:USF.COMPS:EGK:1,2009-03-01T23:48:00Z,27.6010,-82.7510,1.0,36.639,1111122 
COMPS,ioos:station:USF.COMPS:EGK:1,2009-03-01T23:54:00Z,27.6010,-82.7510,1.0,36.586,1111122 
COMPS,ioos:station:USF.COMPS:EGK:1,2009-03-02T00:00:00Z,27.6010,-82.7510,1.0,37.509,1111122 
COMPS,ioos:station:USF.COMPS:EGK:1,2009-03-02T00:06:00Z,27.6010,-82.7510,1.0,37.739,1111122 
COMPS,ioos:station:USF.COMPS:EGK:1,2009-03-02T00:12:00Z,27.6010,-82.7510,1.0,37.739,1111122 
COMPS,ioos:station:USF.COMPS:EGK:1,2009-03-02T00:18:00Z,27.6010,-82.7510,1.0,37.721,1111122 
COMPS,ioos:station:USF.COMPS:EGK:1,2009-03-02T00:24:00Z,27.6010,-82.7510,1.0,37.704,1111122 
COMPS,ioos:station:USF.COMPS:EGK:1,2009-03-02T00:30:00Z,27.6010,-82.7510,1.0,37.688,1111122 
COMPS,ioos:station:USF.COMPS:EGK:1,2009-03-02T00:36:00Z,27.6010,-82.7510,1.0,37.698,1111122 
COMPS,ioos:station:USF.COMPS:EGK:1,2009-03-02T00:42:00Z,27.6010,-82.7510,1.0,36.914,1111122 
COMPS,ioos:station:USF.COMPS:EGK:1,2009-03-02T00:48:00Z,27.6010,-82.7510,1.0,36.562,1111122 
COMPS,ioos:station:USF.COMPS:EGK:1,2009-03-02T00:54:00Z,27.6010,-82.7510,1.0,37.028,1111122 
COMPS,ioos:station:USF.COMPS:EGK:1,2009-03-02T01:00:00Z,27.6010,-82.7510,1.0,37.682,1111122 
COMPS,ioos:station:USF.COMPS:EGK:1,2009-03-02T01:06:00Z,27.6010,-82.7510,1.0,37.665,1111122 
COMPS,ioos:station:USF.COMPS:EGK:1,2009-03-02T01:12:00Z,27.6010,-82.7510,1.0,37.277,1111122 
COMPS,ioos:station:USF.COMPS:EGK:1,2009-03-02T01:18:00Z,27.6010,-82.7510,1.0,37.676,1111122 
COMPS,ioos:station:USF.COMPS:EGK:1,2009-03-02T01:24:00Z,27.6010,-82.7510,1.0,37.412,1111122 
COMPS,ioos:station:USF.COMPS:EGK:1,2009-03-02T01:30:00Z,27.6010,-82.7510,1.0,37.314,1111122 
COMPS,ioos:station:USF.COMPS:EGK:1,2009-03-02T01:36:00Z,27.6010,-82.7510,1.0,37.659,1111122 